Wind_Speed
19 22 26 30 30 30 30 29 28 28 29 28 25 24 25 25 26 24 25 28 20 12 10 10 14 17 17 16 17 19 19 20 23 26 28 31 32 32 33 33 34 31 31 35 39 36 34
11 6 10 17 19 20 25 25 27 27 29 26 24 24 25 25 24 25 24 11 8 11 13 12 13 14 14 16 18 20 20 21 21 25 29 30 30 31 34 37 39 41 41 42 42 43 42
17 20 21 15 8 15 17 18 20 21 21 22 22 24 24 23 23 19 8 7 8 10 10 11 13 15 17 18 20 21 21 22 24 30 33 34 35 36 35 36 37 38 39 43 44 46 45
14 19 19 20 19 15 11 10 11 13 14 16 17 18 18 17 9 6 7 9 7 12 13 17 19 20 21 23 24 26 27 27 30 33 38 37 38 38 38 38 39 42 45 49 49 51 49
19 27 20 26 29 16 17 15 9 13 15 18 13 10 5 2 5 8 10 9 13 16 18 19 23 24 28 30 31 33 34 32 34 40 41 39 41 38 35 37 42 46 48 51 52 52 49
18 21 18 21 24 23 16 19 9 15 16 17 14 18 7 9 6 12 12 17 19 22 23 26 29 31 34 34 36 38 36 35 39 42 44 46 43 43 43 41 43 45 47 51 52 53 56
16 17 17 15 11 19 22 24 15 15 17 25 24 15 15 10 14 16 17 19 21 25 26 29 31 35 38 37 39 40 39 38 44 47 51 49 45 41 43 50 47 46 47 47 51 55 50
16 10 19 18 14 17 14 18 14 14 16 19 22 19 14 15 18 20 22 25 29 31 35 36 37 38 39 41 43 44 39 44 47 52 52 52 42 47 47 54 51 49 46 50 49 52 51
20 17 15 20 21 12 11 11 11 14 17 21 23 23 28 30 29 30 34 33 38 42 40 42 43 44 45 45 48 40 44 47 50 53 53 54 56 57 56 65 60 56 53 56 53 52 51
26 26 24 21 26 23 16 12 15 16 21 26 27 30 33 36 40 42 44 44 46 46 45 46 47 48 47 45 43 46 49 53 58 60 58 57 58 59 64 69 72 69 59 58 63 60 56
28 27 30 30 30 28 24 19 19 17 27 27 30 33 35 41 44 47 47 51 53 52 52 49 47 48 42 44 49 51 55 59 62 62 59 59 65 63 68 74 79 81 76 75 75 87 74
30 30 33 32 31 36 35 31 26 26 31 28 31 39 43 41 45 48 52 55 53 54 53 48 47 46 50 53 56 58 58 62 63 62 60 67 70 69 74 78 84 91 86 79 90 98 79
42 34 36 38 39 37 35 35 31 31 36 34 33 37 36 42 47 53 55 55 56 52 51 47 48 53 57 60 61 58 60 63 65 66 66 68 74 77 80 83 90 97 91 90 98 107 100
44 46 44 42 42 41 39 42 42 43 40 40 38 40 42 46 49 53 57 54 59 58 56 51 50 55 56 61 60 61 59 66 72 72 72 74 77 84 83 88 100 98 93 100 110 111 108
50 50 51 50 48 47 48 48 49 47 44 46 44 48 50 51 46 51 51 61 58 59 55 56 58 60 64 67 69 71 72 73 78 76 77 81 83 88 90 98 103 99 101 109 122 121 113
56 54 54 54 56 56 54 50 49 52 57 53 53 54 56 53 52 54 57 56 60 60 58 60 67 66 68 70 71 75 72 78 80 77 84 88 92 94 101 103 105 104 113 121 126 123 116
58 61 59 59 62 62 62 62 62 64 66 64 59 58 60 57 58 56 60 61 62 60 63 64 68 69 72 72 77 79 80 84 83 84 92 97 99 100 109 111 114 117 124 128 129 114 120
66 65 65 66 65 64 68 68 67 64 63 61 59 57 58 55 56 57 58 62 65 62 67 68 69 78 78 78 79 82 88 91 89 93 99 100 103 111 106 115 126 133 133 131 123 115 116
70 68 69 65 64 65 67 64 62 65 64 65 59 58 57 60 57 56 61 64 62 64 67 69 75 81 81 83 88 87 92 95 94 100 103 105 115 114 115 127 135 137 130 122 117 103 89
74 73 71 70 68 67 64 65 64 66 67 63 59 58 57 61 58 62 66 65 66 70 72 78 82 84 86 87 91 95 99 97 100 104 108 119 116 122 132 136 140 132 127 116 111 102 95
74 74 75 70 68 67 70 67 65 65 66 60 64 57 59 64 64 70 67 68 70 72 75 81 83 86 90 92 93 102 101 103 106 112 119 121 126 135 140 145 134 127 116 104 98 95 91
78 69 68 67 67 67 66 66 68 69 63 65 63 64 67 66 70 67 64 71 76 79 79 84 85 90 93 95 101 104 103 109 112 120 123 127 139 146 148 143 134 120 103 100 91 87 83
77 71 69 69 70 70 69 67 67 69 67 65 67 68 68 70 69 68 69 78 85 87 85 86 90 93 95 99 102 107 108 115 123 122 130 141 149 148 137 134 121 113 106 94 87 81 77
77 73 74 72 72 73 70 68 68 69 69 70 72 70 72 71 70 74 80 85 89 90 86 91 94 99 98 104 107 110 114 124 122 132 142 147 149 146 135 123 113 104 97 88 82 75 69
83 80 77 74 75 74 73 74 73 74 72 80 76 75 72 76 79 80 86 89 88 91 95 99 100 97 100 105 112 115 124 126 134 139 148 147 146 135 124 112 105 98 88 82 74 71 63
85 83 79 80 79 77 76 76 78 77 77 74 77 76 75 78 82 87 87 89 92 96 104 94 95 100 102 110 118 123 127 138 144 151 152 151 138 126 117 106 99 92 84 75 69 63 59
84 82 81 79 79 79 76 76 80 79 82 81 81 77 83 84 88 90 91 90 101 100 91 95 99 103 113 118 125 130 139 142 146 149 150 137 124 118 108 99 94 85 79 73 65 57 50
87 83 81 80 79 78 77 75 74 77 81 82 81 83 87 88 89 91 96 96 86 90 92 97 104 109 115 126 131 138 138 146 152 148 141 124 116 107 100 91 86 79 73 67 61 55 46
83 79 76 73 76 75 75 78 78 81 84 85 84 87 87 85 93 96 83 84 87 91 100 104 110 114 130 133 137 137 147 149 147 138 123 113 105 99 91 84 78 72 67 60 56 51 45
Wind_Direction
257 261 264 264 268 269 269 269 272 275 283 287 291 289 289 294 296 300 301 307 302 300 320 330 338 346 346 339 330 330 325 319 320 315 311 307 304 297 292 289 287 283 284 288 289 286 280
42 356 287 280 277 279 276 269 274 279 280 288 288 285 290 290 294 299 303 293 297 325 335 337 340 345 334 329 323 322 323 322 319 323 323 318 315 311 305 299 296 292 292 291 290 289 287
54 49 43 39 318 288 285 281 283 282 287 285 284 285 287 292 295 297 271 295 319 332 332 342 338 336 331 323 323 325 323 324 324 327 326 318 314 311 308 304 301 295 290 288 286 285 284
40 35 36 35 28 26 13 331 307 302 301 299 294 290 288 295 295 258 322 321 329 331 317 314 313 315 318 322 319 320 314 318 323 327 326 320 315 312 304 300 294 291 286 283 283 284 285
73 36 46 47 43 37 34 24 26 13 4 4 351 333 317 217 297 323 317 311 309 312 310 314 311 312 313 314 315 316 315 316 318 322 323 315 309 306 306 301 297 293 288 284 284 284 284
42 49 57 33 38 46 39 30 359 352 356 350 340 358 359 331 302 319 316 316 306 307 305 306 303 306 308 311 315 316 312 309 314 318 317 314 308 299 300 309 305 294 287 284 282 281 281
8 19 31 36 29 26 25 29 20 17 350 338 333 326 321 308 307 306 301 304 306 300 303 307 304 309 305 305 310 313 307 305 311 312 312 315 308 304 314 314 306 301 292 284 284 282 276
338 338 350 1 16 19 11 15 3 348 338 341 320 309 294 279 285 286 295 299 311 312 308 300 305 307 306 305 309 308 303 309 309 310 310 310 306 310 309 319 310 298 297 294 288 284 279
294 315 327 334 342 355 352 334 344 323 318 310 310 294 298 295 285 289 292 291 298 304 307 305 301 302 304 302 306 304 308 309 309 308 308 307 307 306 308 317 324 314 303 302 294 287 282
290 287 296 316 321 323 333 314 327 319 315 306 306 304 303 296 296 293 294 298 296 298 304 300 299 302 303 304 301 306 311 311 309 306 306 305 312 309 317 315 316 323 311 307 309 300 293
286 297 303 292 306 308 302 310 310 316 308 319 312 303 302 310 313 313 309 308 307 307 303 296 298 301 300 297 304 310 310 309 309 306 307 308 313 311 315 319 320 321 313 310 313 321 312
278 284 286 291 294 298 298 297 300 300 312 300 317 315 310 307 304 299 303 304 302 300 297 295 298 296 302 305 306 307 307 308 311 308 307 314 312 311 313 317 319 318 312 311 316 316 317
285 282 283 287 289 290 289 286 295 302 309 292 295 305 307 301 301 302 299 302 293 298 307 300 294 301 304 307 304 302 306 308 309 310 311 313 313 314 313 316 316 317 312 311 311 313 314
283 284 286 287 285 288 285 284 292 297 305 309 293 306 306 317 300 300 305 300 302 306 305 299 300 303 302 307 308 306 311 315 312 310 313 314 314 316 315 314 315 313 311 309 310 311 310
278 280 285 288 284 287 291 290 291 293 302 308 305 296 311 312 312 312 308 302 303 308 302 301 305 304 305 308 307 307 312 314 314 313 309 315 314 315 314 314 313 312 311 311 312 312 308
278 279 282 284 286 290 290 290 292 296 300 306 307 303 308 306 309 299 308 300 302 304 301 303 302 301 306 306 309 314 315 313 315 308 310 314 315 315 315 312 312 311 314 310 312 311 309
279 281 281 283 285 288 290 290 292 294 296 300 306 309 311 296 306 304 300 302 302 302 298 301 300 303 307 310 310 313 315 313 314 312 312 313 313 314 313 313 314 312 310 309 311 311 308
277 280 283 284 284 286 288 290 292 295 298 300 305 303 302 294 300 298 300 305 305 301 299 300 299 309 308 311 313 313 316 316 314 311 312 312 310 315 314 313 313 312 309 312 311 309 306
278 281 283 285 284 286 289 292 294 296 297 302 305 303 292 293 293 296 303 304 302 302 300 299 301 308 309 310 312 313 316 314 312 310 313 310 313 314 314 312 312 314 314 313 309 304 298
277 280 281 283 287 287 290 292 295 296 300 300 299 296 291 295 296 299 305 303 299 303 303 300 302 307 309 310 310 312 315 312 310 311 312 315 314 313 313 313 315 315 314 311 307 304 300
276 279 281 280 281 284 290 291 292 289 297 296 296 288 288 296 294 303 301 297 297 304 304 303 305 307 311 311 309 311 312 310 311 311 314 316 314 314 313 315 316 315 312 307 304 302 297
273 273 275 277 276 281 286 289 293 295 288 294 297 290 294 292 297 303 296 298 303 304 303 304 307 309 311 310 308 309 307 310 311 313 315 314 313 313 314 317 316 314 309 305 304 300 295
270 270 271 275 276 277 283 288 290 292 293 295 291 293 293 295 299 300 295 298 301 304 304 306 308 311 307 307 306 308 308 310 314 315 314 313 314 316 319 317 315 312 309 307 305 301 296
264 266 269 271 275 276 279 283 287 289 287 289 292 292 294 295 296 296 297 297 299 304 303 306 308 309 303 305 306 307 309 313 313 313 313 314 317 319 318 315 313 310 308 307 306 302 297
263 265 270 271 273 272 276 282 284 285 284 284 289 293 290 293 294 295 295 299 302 302 305 309 305 302 305 305 307 308 312 313 312 313 314 316 319 317 316 314 312 310 308 308 305 303 300
264 267 268 271 271 275 277 280 281 282 285 286 288 290 289 293 294 294 297 299 301 304 307 301 300 300 301 306 309 312 313 311 313 312 315 316 316 317 314 313 312 309 310 309 306 304 301
262 266 270 270 270 275 278 278 279 281 282 285 289 287 290 291 293 295 296 300 303 308 299 299 299 301 304 306 310 311 311 314 313 314 316 316 316 314 313 314 312 311 311 308 307 304 299
263 265 266 268 272 276 278 279 278 286 282 284 287 287 288 290 293 296 300 306 302 298 298 299 300 302 302 307 309 310 314 314 313 314 315 315 314 313 313 313 311 311 309 308 307 305 304
262 264 269 273 275 273 272 281 286 285 286 283 287 288 290 293 295 304 303 298 295 295 297 299 301 303 307 309 313 313 312 315 315 314 313 313 313 313 312 312 311 310 308 308 308 307 308
Height
10741 10740 10740 10740 10740 10740 10740 10740 10739 10739 10740 10738 10736 10735 10733 10731 10729 10728 10726 10724 10721 10719 10717 10715 10713 10711 10709 10707 10705 10703 10702 10700 10698 10696 10694 10692 10690 10689 10688 10685 10683 10681 10679 10677 10674 10673 10671
10741 10738 10737 10736 10735 10735 10734 10734 10734 10734 10734 10733 10732 10730 10729 10727 10725 10723 10721 10719 10718 10717 10715 10713 10711 10710 10708 10705 10703 10701 10699 10697 10695 10693 10690 10687 10684 10681 10679 10676 10674 10672 10670 10667 10665 10663 10662
10740 10738 10736 10733 10732 10731 10730 10730 10730 10730 10729 10728 10726 10725 10724 10723 10721 10720 10718 10717 10716 10714 10712 10711 10709 10707 10705 10703 10700 10698 10696 10693 10691 10687 10684 10681 10678 10675 10672 10669 10666 10663 10660 10658 10654 10652 10651
10741 10739 10736 10734 10732 10729 10728 10727 10727 10726 10725 10723 10721 10719 10718 10718 10718 10718 10716 10715 10713 10712 10710 10709 10707 10704 10702 10700 10697 10693 10691 10688 10685 10681 10677 10674 10670 10667 10665 10661 10658 10654 10651 10647 10645 10641 10641
10739 10739 10736 10734 10731 10729 10728 10727 10726 10725 10724 10723 10720 10717 10715 10716 10716 10716 10714 10712 10711 10709 10707 10705 10703 10701 10697 10694 10691 10688 10685 10681 10678 10674 10670 10666 10663 10659 10655 10652 10648 10644 10640 10636 10632 10629 10629
10738 10737 10736 10734 10732 10729 10728 10726 10724 10723 10721 10720 10719 10716 10715 10715 10713 10712 10711 10710 10708 10706 10704 10701 10697 10695 10691 10688 10685 10681 10677 10674 10670 10666 10661 10658 10654 10650 10645 10641 10636 10631 10630 10622 10618 10619 10614
10737 10735 10734 10733 10731 10729 10727 10724 10721 10719 10717 10716 10715 10714 10712 10710 10709 10708 10707 10705 10704 10701 10698 10696 10693 10688 10684 10681 10677 10673 10669 10665 10661 10656 10651 10646 10643 10639 10635 10630 10624 10619 10614 10610 10603 10599 10601
10734 10733 10731 10730 10728 10726 10725 10722 10720 10718 10716 10714 10713 10712 10710 10707 10705 10703 10701 10699 10697 10695 10692 10688 10684 10680 10677 10673 10669 10664 10660 10656 10651 10646 10641 10636 10631 10627 10622 10617 10611 10605 10600 10593 10589 10583 10584
10731 10729 10728 10726 10725 10722 10721 10720 10718 10716 10714 10713 10711 10710 10708 10706 10702 10698 10695 10693 10690 10687 10685 10680 10676 10671 10667 10664 10658 10654 10649 10645 10640 10635 10629 10624 10619 10613 10607 10601 10596 10590 10581 10574 10570 10566 10565
10727 10725 10724 10723 10722 10720 10717 10716 10714 10713 10711 10709 10707 10706 10704 10700 10697 10693 10689 10686 10683 10679 10676 10671 10666 10662 10657 10653 10649 10644 10639 10635 10630 10623 10617 10611 10604 10598 10592 10583 10577 10573 10562 10556 10551 10548 10548
10721 10721 10719 10717 10716 10716 10713 10711 10710 10708 10707 10704 10702 10700 10697 10693 10689 10685 10682 10678 10674 10669 10666 10661 10656 10651 10647 10643 10638 10634 10628 10623 10617 10610 10603 10596 10589 10583 10575 10565 10555 10550 10543 10535 10527 10522 10523
10713 10713 10713 10712 10711 10709 10706 10704 10703 10702 10701 10699 10696 10693 10690 10686 10682 10678 10674 10669 10664 10660 10655 10650 10645 10640 10635 10630 10627 10623 10617 10610 10604 10596 10589 10580 10573 10566 10558 10548 10536 10527 10519 10512 10506 10495 10499
10706 10705 10704 10704 10704 10703 10701 10698 10696 10695 10694 10692 10690 10686 10683 10679 10674 10669 10664 10659 10654 10648 10644 10640 10634 10629 10624 10619 10614 10610 10605 10597 10589 10583 10575 10569 10555 10548 10537 10526 10517 10505 10491 10484 10476 10467 10470
10697 10697 10696 10696 10696 10695 10694 10691 10688 10686 10685 10683 10681 10678 10674 10669 10664 10660 10654 10648 10643 10638 10632 10628 10622 10618 10611 10604 10600 10594 10589 10582 10571 10561 10554 10550 10539 10529 10520 10508 10495 10483 10471 10455 10441 10444 10436
10688 10687 10687 10687 10686 10685 10683 10681 10680 10677 10675 10672 10670 10666 10663 10659 10653 10649 10643 10637 10632 10625 10619 10615 10609 10605 10597 10589 10583 10577 10570 10562 10553 10543 10532 10526 10519 10507 10497 10481 10469 10461 10443 10429 10410 10410 10393
10677 10676 10676 10676 10675 10674 10674 10672 10669 10668 10665 10662 10659 10656 10651 10646 10641 10636 10631 10626 10620 10614 10608 10602 10595 10590 10582 10574 10566 10558 10554 10544 10534 10522 10512 10506 10499 10487 10474 10459 10439 10430 10419 10400 10393 10366 10355
10665 10664 10665 10664 10663 10662 10662 10660 10658 10656 10654 10650 10646 10642 10639 10633 10629 10624 10619 10614 10606 10600 10594 10588 10580 10574 10565 10557 10548 10540 10530 10523 10512 10502 10492 10481 10474 10471 10446 10424 10417 10405 10386 10368 10355 10351 10318
10653 10651 10650 10650 10650 10648 10648 10648 10646 10644 10640 10636 10633 10630 10626 10621 10616 10611 10605 10600 10593 10585 10579 10573 10565 10556 10547 10538 10531 10520 10508 10497 10490 10480 10470 10459 10442 10442 10427 10403 10385 10372 10355 10336 10320 10317 10301
10640 10638 10636 10635 10636 10636 10635 10635 10633 10631 10629 10625 10620 10616 10611 10607 10602 10597 10591 10584 10578 10571 10564 10557 10549 10539 10530 10520 10507 10501 10490 10479 10468 10458 10445 10433 10418 10403 10408 10382 10357 10345 10324 10300 10281 10268 10271
10625 10625 10623 10622 10622 10622 10622 10622 10620 10618 10615 10610 10607 10602 10596 10593 10587 10582 10576 10569 10562 10556 10548 10540 10533 10522 10511 10501 10487 10478 10468 10459 10448 10435 10421 10405 10389 10374 10359 10347 10326 10307 10290 10273 10252 10235 10223
10609 10609 10609 10608 10607 10608 10609 10609 10607 10603 10599 10596 10593 10588 10584 10579 10573 10566 10560 10554 10546 10539 10531 10522 10515 10502 10491 10481 10469 10457 10444 10433 10423 10408 10393 10376 10360 10344 10325 10304 10291 10270 10256 10240 10225 10209 10194
10596 10594 10594 10593 10593 10593 10595 10593 10591 10589 10585 10583 10578 10576 10571 10564 10557 10551 10544 10537 10530 10522 10514 10503 10493 10483 10471 10459 10447 10433 10425 10412 10395 10380 10362 10346 10325 10312 10295 10266 10249 10233 10221 10203 10194 10179 10164
10583 10580 10581 10580 10579 10578 10578 10579 10576 10575 10572 10568 10564 10560 10555 10547 10541 10535 10527 10520 10513 10504 10496 10484 10475 10463 10452 10439 10425 10412 10399 10384 10370 10351 10333 10315 10295 10273 10260 10235 10216 10198 10176 10169 10162 10152 10136
10568 10565 10567 10569 10567 10566 10565 10564 10562 10560 10558 10554 10549 10545 10539 10532 10524 10517 10511 10503 10495 10486 10477 10468 10455 10443 10431 10417 10404 10390 10375 10359 10343 10326 10305 10283 10260 10240 10223 10205 10188 10172 10154 10144 10133 10120 10110
10549 10551 10554 10554 10554 10554 10553 10551 10550 10546 10543 10540 10535 10530 10523 10517 10510 10502 10493 10486 10479 10470 10459 10447 10436 10422 10409 10396 10380 10364 10348 10331 10316 10295 10276 10254 10233 10214 10191 10177 10159 10135 10130 10119 10110 10095 10089
10533 10536 10538 10538 10538 10541 10541 10539 10536 10533 10528 10523 10519 10513 10507 10502 10494 10486 10477 10469 10461 10451 10440 10426 10415 10403 10389 10375 10357 10337 10317 10301 10275 10259 10245 10223 10202 10182 10164 10148 10134 10115 10101 10097 10087 10077 10067
10515 10519 10522 10522 10524 10526 10527 10524 10521 10517 10514 10510 10504 10497 10491 10485 10477 10470 10462 10453 10442 10430 10418 10408 10397 10383 10369 10352 10334 10317 10294 10277 10252 10231 10210 10189 10174 10152 10135 10123 10104 10093 10082 10072 10066 10059 10053
10497 10505 10506 10508 10510 10509 10508 10507 10505 10502 10497 10493 10487 10481 10475 10468 10462 10453 10443 10432 10419 10409 10399 10387 10376 10361 10345 10328 10309 10291 10269 10249 10227 10206 10184 10163 10146 10129 10114 10101 10085 10075 10066 10056 10045 10038 10035
10481 10489 10492 10492 10493 10491 10490 10489 10488 10485 10481 10477 10471 10464 10457 10450 10444 10433 10420 10411 10402 10391 10378 10364 10351 10335 10320 10300 10282 10261 10239 10221 10200 10180 10161 10142 10124 10108 10092 10078 10068 10060 10049 10041 10031 10023 10017